Time,TemperatureF,DewpointF,PressureIn,WindDirection,WindDirectionDegrees,WindSpeedMPH,WindSpeedGustMPH,Humidity,HourlyPrecipIn,Conditions,Clouds,dailyrainin,SoftwareType,DateUTC
2013-11-22 00:01:00,42.3,37.5,30.41,South,177,0.0,0.0,83,0.00,,OVC060,0.00,VWS V14.01,2013-11-22 05:01:00,
2013-11-22 00:06:00,42.3,37.5,30.40,South,177,0.0,0.0,83,0.00,,OVC060,0.00,VWS V14.01,2013-11-22 05:06:00,
2013-11-22 00:11:00,42.3,37.2,30.40,South,177,0.0,0.0,82,0.00,,OVC060,0.00,VWS V14.01,2013-11-22 05:11:00,
2013-11-22 00:16:00,42.3,37.2,30.39,South,177,0.0,0.0,82,0.00,,OVC060,0.00,VWS V14.01,2013-11-22 05:16:00,
2013-11-22 00:21:00,42.3,37.2,30.39,South,177,0.0,0.0,82,0.00,,OVC060,0.00,VWS V14.01,2013-11-22 05:21:00,
2013-11-22 00:26:00,42.4,37.6,30.40,South,177,0.0,0.0,83,0.00,,OVC060,0.00,VWS V14.01,2013-11-22 05:26:00,
2013-11-22 00:31:00,42.4,37.6,30.39,South,177,0.0,0.0,83,0.00,,OVC060,0.00,VWS V14.01,2013-11-22 05:31:00,
2013-11-22 00:36:00,42.4,37.6,30.39,South,177,0.0,0.0,83,0.00,,OVC060,0.00,VWS V14.01,2013-11-22 05:36:00,
2013-11-22 00:41:00,42.5,37.7,30.37,South,177,0.0,0.0,83,0.00,,OVC060,0.00,VWS V14.01,2013-11-22 05:41:00,
2013-11-22 00:46:00,42.5,37.7,30.38,South,177,1.0,1.0,83,0.00,,OVC060,0.00,VWS V14.01,2013-11-22 05:46:00,
2013-11-22 00:51:00,42.5,37.7,30.38,South,177,0.0,1.0,83,0.00,,OVC060,0.00,VWS V14.01,2013-11-22 05:51:00,
2013-11-22 00:56:00,42.4,37.6,30.37,South,177,0.0,1.0,83,0.00,,OVC060,0.00,VWS V14.01,2013-11-22 05:56:00,
2013-11-22 01:01:00,42.4,37.6,30.37,South,177,0.0,0.0,83,0.00,,OVC110,0.00,VWS V14.01,2013-11-22 06:01:00,
2013-11-22 01:06:00,42.4,37.6,30.37,South,177,0.0,0.0,83,0.00,,OVC110,0.00,VWS V14.01,2013-11-22 06:06:00,
2013-11-22 01:11:00,42.4,37.6,30.37,South,177,0.0,0.0,83,0.00,,OVC110,0.00,VWS V14.01,2013-11-22 06:11:00,
2013-11-22 01:16:00,42.3,37.5,30.37,South,177,0.0,0.0,83,0.00,,OVC110,0.00,VWS V14.01,2013-11-22 06:16:00,
2013-11-22 01:21:00,42.3,37.5,30.37,South,177,0.0,0.0,83,0.00,,OVC110,0.00,VWS V14.01,2013-11-22 06:21:00,
2013-11-22 01:26:00,42.3,37.5,30.36,South,177,0.0,0.0,83,0.00,,OVC110,0.00,VWS V14.01,2013-11-22 06:26:00,
2013-11-22 01:31:00,42.4,37.6,30.35,South,177,0.0,0.0,83,0.00,,OVC110,0.00,VWS V14.01,2013-11-22 06:31:00,
2013-11-22 01:36:00,42.4,37.6,30.36,South,177,0.0,0.0,83,0.00,,OVC110,0.00,VWS V14.01,2013-11-22 06:36:00,
2013-11-22 01:41:00,42.3,37.5,30.36,South,177,0.0,0.0,83,0.00,,OVC110,0.00,VWS V14.01,2013-11-22 06:41:00,
2013-11-22 01:46:00,42.3,37.5,30.35,South,177,0.0,0.0,83,0.00,,OVC110,0.00,VWS V14.01,2013-11-22 06:46:00,
2013-11-22 01:51:00,42.3,37.5,30.35,South,177,0.0,0.0,83,0.00,,OVC110,0.00,VWS V14.01,2013-11-22 06:51:00,
2013-11-22 01:56:00,42.3,37.5,30.35,South,177,0.0,0.0,83,0.00,,OVC110,0.00,VWS V14.01,2013-11-22 06:56:00,
2013-11-22 02:01:00,42.4,37.6,30.35,South,177,0.0,0.0,83,0.00,,OVC050,0.00,VWS V14.01,2013-11-22 07:01:00,
2013-11-22 02:07:00,42.4,37.6,30.34,South,177,0.0,0.0,83,0.00,,OVC050,0.00,VWS V14.01,2013-11-22 07:07:00,
2013-11-22 02:12:00,42.4,37.6,30.34,South,177,0.0,0.0,83,0.00,,OVC050,0.00,VWS V14.01,2013-11-22 07:12:00,
2013-11-22 02:17:00,42.3,37.5,30.34,South,177,0.0,0.0,83,0.00,,OVC050,0.00,VWS V14.01,2013-11-22 07:17:00,
2013-11-22 02:22:00,42.4,37.6,30.35,South,177,0.0,0.0,83,0.00,,OVC050,0.00,VWS V14.01,2013-11-22 07:22:00,
2013-11-22 02:27:00,42.4,37.6,30.34,South,177,0.0,0.0,83,0.00,,OVC050,0.00,VWS V14.01,2013-11-22 07:27:00,
2013-11-22 02:32:00,42.4,37.6,30.34,South,177,0.0,0.0,83,0.00,,OVC050,0.00,VWS V14.01,2013-11-22 07:32:00,
2013-11-22 02:37:00,42.4,37.6,30.33,South,177,0.0,0.0,83,0.00,,OVC050,0.00,VWS V14.01,2013-11-22 07:37:00,
2013-11-22 02:42:00,42.4,37.9,30.33,South,177,0.0,0.0,84,0.00,,OVC050,0.00,VWS V14.01,2013-11-22 07:42:00,
2013-11-22 02:47:00,42.4,37.9,30.33,South,177,0.0,0.0,84,0.00,,OVC050,0.00,VWS V14.01,2013-11-22 07:47:00,
2013-11-22 02:52:00,42.4,38.2,30.32,South,177,0.0,0.0,85,0.00,,OVC050,0.00,VWS V14.01,2013-11-22 07:52:00,
2013-11-22 02:57:00,42.3,38.1,30.32,South,177,0.0,1.0,85,0.00,,OVC050,0.00,VWS V14.01,2013-11-22 07:57:00,
2013-11-22 03:02:00,42.3,38.4,30.32,South,177,0.0,0.0,86,0.00,,OVC050,0.00,VWS V14.01,2013-11-22 08:02:00,
2013-11-22 03:07:00,42.2,38.3,30.33,South,177,0.0,0.0,86,0.00,,OVC050,0.00,VWS V14.01,2013-11-22 08:07:00,
2013-11-22 03:12:00,42.1,38.2,30.32,South,177,0.0,0.0,86,0.00,,OVC050,0.00,VWS V14.01,2013-11-22 08:12:00,
2013-11-22 03:17:00,42.1,38.2,30.31,South,177,0.0,0.0,86,0.00,,OVC050,0.00,VWS V14.01,2013-11-22 08:17:00,
2013-11-22 03:22:00,42.1,38.5,30.32,South,177,0.0,0.0,87,0.00,,OVC050,0.00,VWS V14.01,2013-11-22 08:22:00,
2013-11-22 03:27:00,42.0,38.4,30.31,South,177,0.0,0.0,87,0.00,,OVC050,0.00,VWS V14.01,2013-11-22 08:27:00,
2013-11-22 03:32:00,42.0,38.4,30.31,South,177,0.0,0.0,87,0.00,,OVC075,0.00,VWS V14.01,2013-11-22 08:32:00,
2013-11-22 03:37:00,42.0,38.7,30.30,South,177,0.0,0.0,88,0.00,,OVC075,0.00,VWS V14.01,2013-11-22 08:37:00,
2013-11-22 03:42:00,41.9,38.6,30.31,South,177,0.0,0.0,88,0.00,,OVC075,0.00,VWS V14.01,2013-11-22 08:42:00,
2013-11-22 03:47:00,41.9,38.6,30.31,South,177,0.0,0.0,88,0.00,,OVC075,0.00,VWS V14.01,2013-11-22 08:47:00,
2013-11-22 03:52:00,41.9,38.9,30.31,South,177,0.0,0.0,89,0.00,,OVC075,0.00,VWS V14.01,2013-11-22 08:52:00,
2013-11-22 03:57:00,41.9,38.9,30.31,South,177,0.0,1.0,89,0.00,,OVC075,0.00,VWS V14.01,2013-11-22 08:57:00,
2013-11-22 04:02:00,41.8,38.8,30.30,South,177,0.0,1.0,89,0.00,,-RA,0.00,VWS V14.01,2013-11-22 09:02:00,
2013-11-22 04:07:00,41.8,38.8,30.30,South,177,0.0,1.0,89,0.00,,-RA,0.00,VWS V14.01,2013-11-22 09:07:00,
2013-11-22 04:12:00,41.7,38.7,30.30,South,177,0.0,1.0,89,0.00,,-RA,0.00,VWS V14.01,2013-11-22 09:12:00,
2013-11-22 04:17:00,41.7,39.0,30.30,South,177,0.0,1.0,90,0.00,,-RA,0.00,VWS V14.01,2013-11-22 09:17:00,
2013-11-22 04:22:00,41.7,39.0,30.29,South,177,0.0,1.0,90,0.00,,-RA,0.00,VWS V14.01,2013-11-22 09:22:00,
2013-11-22 04:27:00,41.6,38.9,30.29,South,177,0.0,1.0,90,0.00,,-RA,0.00,VWS V14.01,2013-11-22 09:27:00,
2013-11-22 04:32:00,41.5,38.8,30.28,South,177,0.0,0.0,90,0.00,,-RA,0.00,VWS V14.01,2013-11-22 09:32:00,
2013-11-22 04:37:00,41.5,38.8,30.29,South,177,0.0,0.0,90,0.00,,-RA,0.00,VWS V14.01,2013-11-22 09:37:00,
2013-11-22 04:42:00,41.5,39.1,30.29,South,177,0.0,0.0,91,0.00,,-RA,0.00,VWS V14.01,2013-11-22 09:42:00,
2013-11-22 04:47:00,41.4,39.0,30.28,South,177,0.0,0.0,91,0.00,,-RA,0.00,VWS V14.01,2013-11-22 09:47:00,
2013-11-22 04:52:00,41.4,39.0,30.29,South,177,0.0,0.0,91,0.00,,-RA,0.00,VWS V14.01,2013-11-22 09:52:00,
2013-11-22 04:57:00,41.3,38.9,30.28,South,177,0.0,2.0,91,0.01,,-RA,0.01,VWS V14.01,2013-11-22 09:57:00,
2013-11-22 05:02:00,41.3,38.9,30.28,South,177,0.0,0.0,91,0.01,,OVC060,0.01,VWS V14.01,2013-11-22 10:02:00,
2013-11-22 05:07:00,41.3,38.9,30.28,South,177,0.0,0.0,91,0.01,,OVC060,0.01,VWS V14.01,2013-11-22 10:07:00,
2013-11-22 05:12:00,41.2,39.1,30.28,South,177,0.0,1.0,92,0.01,,OVC060,0.01,VWS V14.01,2013-11-22 10:12:00,
2013-11-22 05:17:00,41.2,39.3,30.28,South,177,0.0,1.0,93,0.01,,OVC060,0.01,VWS V14.01,2013-11-22 10:17:00,
2013-11-22 05:22:00,41.2,39.1,30.27,South,177,0.0,1.0,92,0.01,,OVC060,0.01,VWS V14.01,2013-11-22 10:22:00,
2013-11-22 05:27:00,41.1,39.0,30.27,South,177,0.0,1.0,92,0.01,,OVC060,0.01,VWS V14.01,2013-11-22 10:27:00,
2013-11-22 05:32:00,41.1,39.0,30.27,South,177,0.0,0.0,92,0.01,,OVC095,0.01,VWS V14.01,2013-11-22 10:32:00,
2013-11-22 05:37:00,41.1,39.2,30.27,South,177,0.0,0.0,93,0.01,,OVC095,0.01,VWS V14.01,2013-11-22 10:37:00,
2013-11-22 05:42:00,41.1,39.2,30.27,South,177,0.0,0.0,93,0.01,,OVC095,0.01,VWS V14.01,2013-11-22 10:42:00,
2013-11-22 05:47:00,41.1,39.2,30.26,South,177,0.0,0.0,93,0.01,,OVC095,0.01,VWS V14.01,2013-11-22 10:47:00,
2013-11-22 05:52:00,41.1,39.2,30.26,South,177,0.0,0.0,93,0.01,,OVC095,0.01,VWS V14.01,2013-11-22 10:52:00,
2013-11-22 05:57:00,41.1,39.2,30.26,South,177,0.0,0.0,93,0.01,,OVC095,0.01,VWS V14.01,2013-11-22 10:57:00,
2013-11-22 06:02:00,41.1,39.2,30.25,South,177,0.0,0.0,93,0.00,,OVC048,0.01,VWS V14.01,2013-11-22 11:02:00,
2013-11-22 06:07:00,41.1,39.2,30.25,South,177,0.0,0.0,93,0.00,,OVC048,0.01,VWS V14.01,2013-11-22 11:07:00,
2013-11-22 06:12:00,41.1,39.5,30.26,South,177,0.0,0.0,94,0.00,,OVC048,0.01,VWS V14.01,2013-11-22 11:12:00,
2013-11-22 06:17:00,41.1,39.5,30.26,South,177,0.0,1.0,94,0.00,,OVC048,0.01,VWS V14.01,2013-11-22 11:17:00,
2013-11-22 06:22:00,41.1,39.5,30.27,South,177,0.0,3.0,94,0.00,,OVC048,0.01,VWS V14.01,2013-11-22 11:22:00,
2013-11-22 06:27:00,41.1,39.5,30.27,SSW,198,1.0,4.0,94,0.00,,OVC048,0.01,VWS V14.01,2013-11-22 11:27:00,
2013-11-22 06:32:00,41.1,39.5,30.27,SSW,202,0.0,2.0,94,0.01,,OVC048,0.02,VWS V14.01,2013-11-22 11:32:00,
2013-11-22 06:37:00,41.1,39.8,30.27,SSW,202,0.0,2.0,95,0.01,,OVC048,0.02,VWS V14.01,2013-11-22 11:37:00,
2013-11-22 06:42:00,41.1,39.8,30.27,SSW,202,0.0,2.0,95,0.01,,OVC048,0.02,VWS V14.01,2013-11-22 11:42:00,
2013-11-22 06:47:00,41.1,39.8,30.27,SSW,202,0.0,2.0,95,0.01,,OVC048,0.02,VWS V14.01,2013-11-22 11:47:00,
2013-11-22 06:52:00,41.1,39.8,30.27,SSW,202,0.0,2.0,95,0.02,,OVC048,0.00,VWS V14.01,2013-11-22 11:52:00,
2013-11-22 06:57:00,41.0,39.7,30.26,SSW,202,0.0,2.0,95,0.02,,OVC048,0.03,VWS V14.01,2013-11-22 11:57:00,
2013-11-22 07:02:00,41.0,39.7,30.26,SSW,202,0.0,0.0,95,0.03,,-RA,0.04,VWS V14.01,2013-11-22 12:02:00,
2013-11-22 07:07:00,41.0,39.7,30.26,SSW,202,0.0,0.0,95,0.03,,-RA,0.04,VWS V14.01,2013-11-22 12:07:00,
2013-11-22 07:12:00,41.0,39.7,30.26,SSW,202,0.0,1.0,95,0.03,,-RA,0.04,VWS V14.01,2013-11-22 12:12:00,
2013-11-22 07:17:00,40.9,39.6,30.27,SSW,202,0.0,1.0,95,0.03,,-RA,0.04,VWS V14.01,2013-11-22 12:17:00,
2013-11-22 07:22:00,40.9,39.6,30.26,SSW,202,0.0,2.0,95,0.03,,-RA,0.00,VWS V14.01,2013-11-22 12:22:00,
2013-11-22 07:27:00,40.9,39.8,30.26,SSW,202,0.0,2.0,96,0.03,,-RA,0.04,VWS V14.01,2013-11-22 12:27:00,
2013-11-22 07:32:00,40.9,39.8,30.42,SSW,199,0.0,0.0,96,0.03,,-RA,0.04,VWS V14.01,2013-11-22 12:32:00,
2013-11-22 07:37:00,38.5,37.5,30.01,SSW,205,0.0,0.0,96,0.03,,-RA,0.04,VWS V14.01,2013-11-22 12:37:00,
2013-11-22 07:42:00,41.1,40.0,30.26,SSW,201,0.0,0.0,96,0.03,,-RA,0.04,VWS V14.01,2013-11-22 12:42:00,
2013-11-22 07:47:00,41.5,40.5,30.27,SSW,201,0.0,0.0,96,0.03,,-RA,0.04,VWS V14.01,2013-11-22 12:47:00,
2013-11-22 07:52:00,41.0,40.0,30.25,SSW,202,0.0,0.0,96,0.03,,-RA,0.04,VWS V14.01,2013-11-22 12:52:00,
2013-11-22 07:57:00,41.0,40.0,30.25,SSW,202,0.0,0.0,96,0.03,,-RA,0.04,VWS V14.01,2013-11-22 12:57:00,
2013-11-22 08:02:00,41.1,40.0,30.25,SSW,202,0.0,0.0,96,0.01,,,0.04,VWS V14.01,2013-11-22 13:02:00,
2013-11-22 08:07:00,41.1,40.0,30.25,SSW,202,0.0,0.0,96,0.01,,,0.04,VWS V14.01,2013-11-22 13:07:00,
2013-11-22 08:12:00,41.2,40.4,30.25,SSW,202,0.0,1.0,97,0.01,,,0.04,VWS V14.01,2013-11-22 13:12:00,
2013-11-22 08:17:00,41.3,40.2,30.25,SSW,202,0.0,1.0,96,0.01,,,0.04,VWS V14.01,2013-11-22 13:17:00,
2013-11-22 08:22:00,41.3,40.2,30.24,SSW,202,0.0,2.0,96,0.01,,,0.04,VWS V14.01,2013-11-22 13:22:00,
2013-11-22 08:27:00,41.4,40.3,30.24,SSW,202,0.0,2.0,96,0.01,,,0.04,VWS V14.01,2013-11-22 13:27:00,
2013-11-22 08:32:00,41.5,40.5,30.25,SSW,202,0.0,0.0,96,0.00,,,0.00,VWS V14.01,2013-11-22 13:32:00,
2013-11-22 08:37:00,41.7,40.9,30.24,SSW,202,0.0,0.0,97,0.00,,,0.04,VWS V14.01,2013-11-22 13:37:00,
2013-11-22 08:42:00,41.8,41.0,30.24,SSW,202,0.0,0.0,97,0.00,,,0.04,VWS V14.01,2013-11-22 13:42:00,
2013-11-22 08:47:00,41.9,41.1,30.24,SSW,202,0.0,0.0,97,0.00,,,0.04,VWS V14.01,2013-11-22 13:47:00,
2013-11-22 08:52:00,42.2,41.4,30.24,SSW,202,0.0,0.0,97,0.00,,,0.04,VWS V14.01,2013-11-22 13:52:00,
2013-11-22 08:57:00,42.4,41.6,30.24,SSW,202,0.0,0.0,97,0.00,,,0.04,VWS V14.01,2013-11-22 13:57:00,
2013-11-22 09:02:00,42.6,41.8,30.24,SSW,202,0.0,0.0,97,0.00,,OVC028,0.04,VWS V14.01,2013-11-22 14:02:00,
2013-11-22 09:07:00,42.8,42.0,30.24,SSW,202,0.0,1.0,97,0.00,,OVC028,0.04,VWS V14.01,2013-11-22 14:07:00,
2013-11-22 09:12:00,42.9,42.1,30.23,SSW,202,0.0,1.0,97,0.00,,OVC028,0.04,VWS V14.01,2013-11-22 14:12:00,
2013-11-22 09:17:00,43.1,42.3,30.23,SSW,202,1.0,2.0,97,0.00,,OVC028,0.04,VWS V14.01,2013-11-22 14:17:00,
2013-11-22 09:22:00,43.3,42.5,30.23,SSW,202,1.0,3.0,97,0.00,,OVC028,0.04,VWS V14.01,2013-11-22 14:22:00,
2013-11-22 09:27:00,43.6,42.8,30.23,SSW,202,0.0,3.0,97,0.00,,OVC028,0.04,VWS V14.01,2013-11-22 14:27:00,
2013-11-22 09:32:00,43.8,43.0,30.23,SSW,202,0.0,0.0,97,0.00,,OVC028,0.04,VWS V14.01,2013-11-22 14:32:00,
2013-11-22 09:37:00,44.1,43.3,30.23,SSW,202,0.0,1.0,97,0.00,,OVC028,0.04,VWS V14.01,2013-11-22 14:37:00,
2013-11-22 09:42:00,44.3,43.5,30.22,SSW,202,0.0,2.0,97,0.00,,OVC028,0.04,VWS V14.01,2013-11-22 14:42:00,
2013-11-22 09:47:00,44.6,43.8,30.23,SSW,201,0.0,2.0,97,0.00,,OVC028,0.04,VWS V14.01,2013-11-22 14:47:00,
2013-11-22 09:52:00,44.5,43.4,30.23,SSW,201,0.0,4.0,96,0.00,,OVC028,0.04,VWS V14.01,2013-11-22 14:52:00,
2013-11-22 09:57:00,44.6,43.5,30.23,SSW,201,0.0,4.0,96,0.00,,OVC028,0.04,VWS V14.01,2013-11-22 14:57:00,
2013-11-22 10:02:00,44.8,43.7,30.23,SSW,200,0.0,1.0,96,0.00,,OVC023,0.04,VWS V14.01,2013-11-22 15:02:00,
2013-11-22 10:07:00,45.0,43.9,30.22,SSW,195,0.0,2.0,96,0.00,,OVC023,0.04,VWS V14.01,2013-11-22 15:07:00,
2013-11-22 10:12:00,45.2,43.9,30.23,WSW,255,3.0,4.0,95,0.00,,OVC023,0.04,VWS V14.01,2013-11-22 15:12:00,
2013-11-22 10:17:00,45.2,43.6,30.23,West,271,1.0,4.0,94,0.00,,OVC023,0.04,VWS V14.01,2013-11-22 15:17:00,
2013-11-22 10:22:00,45.3,43.7,30.23,West,272,1.0,4.0,94,0.00,,OVC023,0.04,VWS V14.01,2013-11-22 15:22:00,
2013-11-22 10:27:00,45.4,43.8,30.22,West,270,0.0,4.0,94,0.00,,OVC023,0.04,VWS V14.01,2013-11-22 15:27:00,
2013-11-22 10:32:00,45.6,44.0,30.22,West,266,2.0,3.0,94,0.00,,OVC023,0.04,VWS V14.01,2013-11-22 15:32:00,
2013-11-22 10:37:00,45.8,44.2,30.22,West,259,0.0,3.0,94,0.00,,OVC023,0.04,VWS V14.01,2013-11-22 15:37:00,
2013-11-22 10:42:00,45.9,44.0,30.22,West,260,0.0,3.0,93,0.00,,OVC023,0.04,VWS V14.01,2013-11-22 15:42:00,
2013-11-22 10:47:00,46.1,44.2,30.21,WSW,257,0.0,3.0,93,0.00,,OVC023,0.04,VWS V14.01,2013-11-22 15:47:00,
2013-11-22 10:52:00,46.5,44.6,30.21,West,267,0.0,4.0,93,0.00,,OVC023,0.04,VWS V14.01,2013-11-22 15:52:00,
2013-11-22 10:57:00,46.7,44.5,30.21,WNW,285,0.0,4.0,92,0.00,,OVC023,0.04,VWS V14.01,2013-11-22 15:57:00,
2013-11-22 11:02:00,46.9,44.4,30.20,West,270,4.0,5.0,91,0.00,,OVC070,0.04,VWS V14.01,2013-11-22 16:02:00,
2013-11-22 11:07:00,46.7,43.9,30.21,West,261,3.0,5.0,90,0.00,,OVC070,0.04,VWS V14.01,2013-11-22 16:07:00,
2013-11-22 11:12:00,46.6,43.8,30.20,West,264,1.0,5.0,90,0.00,,OVC070,0.04,VWS V14.01,2013-11-22 16:12:00,
2013-11-22 11:17:00,46.7,44.2,30.20,WSW,252,1.0,5.0,91,0.00,,OVC070,0.04,VWS V14.01,2013-11-22 16:17:00,
2013-11-22 11:22:00,46.9,44.4,30.19,WSW,257,2.0,5.0,91,0.00,,OVC070,0.04,VWS V14.01,2013-11-22 16:22:00,
2013-11-22 11:27:00,47.1,44.6,30.19,WSW,257,0.0,5.0,91,0.00,,OVC070,0.04,VWS V14.01,2013-11-22 16:27:00,
2013-11-22 11:32:00,47.2,44.4,30.19,WSW,256,1.0,3.0,90,0.00,,OVC070,0.04,VWS V14.01,2013-11-22 16:32:00,
2013-11-22 11:37:00,47.2,44.4,30.19,WSW,256,0.0,3.0,90,0.00,,OVC070,0.04,VWS V14.01,2013-11-22 16:37:00,
2013-11-22 11:42:00,47.3,44.5,30.19,WSW,256,0.0,3.0,90,0.00,,OVC070,0.04,VWS V14.01,2013-11-22 16:42:00,
2013-11-22 11:47:00,47.5,44.7,30.19,WSW,254,2.0,3.0,90,0.00,,OVC070,0.04,VWS V14.01,2013-11-22 16:47:00,
2013-11-22 11:52:00,47.6,44.5,30.18,WSW,254,0.0,3.0,89,0.00,,OVC070,0.04,VWS V14.01,2013-11-22 16:52:00,
2013-11-22 11:57:00,47.7,44.9,30.17,WSW,240,1.0,4.0,90,0.00,,OVC070,0.04,VWS V14.01,2013-11-22 16:57:00,
2013-11-22 12:02:00,48.0,44.9,30.17,SW,216,2.0,5.0,89,0.00,,OVC022,0.04,VWS V14.01,2013-11-22 17:02:00,
2013-11-22 12:07:00,48.3,45.2,30.17,SW,221,1.0,5.0,89,0.00,,OVC022,0.04,VWS V14.01,2013-11-22 17:07:00,
2013-11-22 12:12:00,48.5,45.4,30.16,SW,221,1.0,5.0,89,0.00,,OVC022,0.04,VWS V14.01,2013-11-22 17:12:00,
2013-11-22 12:18:00,48.6,45.2,30.16,West,268,0.0,5.0,88,0.00,,OVC022,0.04,VWS V14.01,2013-11-22 17:18:00,
2013-11-22 12:23:00,48.8,45.4,30.16,West,268,0.0,5.0,88,0.00,,OVC022,0.04,VWS V14.01,2013-11-22 17:23:00,
2013-11-22 12:28:00,48.8,45.1,30.16,West,268,2.0,5.0,87,0.00,,OVC022,0.04,VWS V14.01,2013-11-22 17:28:00,
2013-11-22 12:33:00,48.9,45.5,30.15,West,268,2.0,3.0,88,0.00,,OVC022,0.04,VWS V14.01,2013-11-22 17:33:00,
2013-11-22 12:38:00,49.1,45.4,30.15,WSW,239,0.0,4.0,87,0.00,,OVC022,0.04,VWS V14.01,2013-11-22 17:38:00,
2013-11-22 12:43:00,49.3,45.6,30.15,WSW,239,1.0,4.0,87,0.00,,OVC022,0.04,VWS V14.01,2013-11-22 17:43:00,
2013-11-22 12:48:00,49.5,45.5,30.15,WNW,290,2.0,4.0,86,0.00,,OVC022,0.04,VWS V14.01,2013-11-22 17:48:00,
2013-11-22 12:53:00,49.5,45.5,30.15,WNW,296,0.0,4.0,86,0.00,,OVC022,0.04,VWS V14.01,2013-11-22 17:53:00,
2013-11-22 12:58:00,49.5,45.5,30.15,WNW,296,1.0,4.0,86,0.00,,OVC022,0.04,VWS V14.01,2013-11-22 17:58:00,
2013-11-22 13:03:00,49.5,45.5,30.15,WNW,296,0.0,1.0,86,0.00,,OVC090,0.04,VWS V14.01,2013-11-22 18:03:00,
2013-11-22 13:08:00,49.5,45.5,30.14,WNW,296,1.0,2.0,86,0.00,,OVC090,0.04,VWS V14.01,2013-11-22 18:08:00,
2013-11-22 13:13:00,49.7,45.7,30.14,WNW,296,0.0,2.0,86,0.00,,OVC090,0.04,VWS V14.01,2013-11-22 18:13:00,
2013-11-22 13:18:00,49.9,45.9,30.14,West,264,0.0,2.0,86,0.00,,OVC090,0.04,VWS V14.01,2013-11-22 18:18:00,
2013-11-22 13:23:00,50.0,46.0,30.13,WSW,257,0.0,2.0,86,0.00,,OVC090,0.04,VWS V14.01,2013-11-22 18:23:00,
2013-11-22 13:28:00,50.2,46.2,30.13,WSW,258,0.0,2.0,86,0.00,,OVC090,0.04,VWS V14.01,2013-11-22 18:28:00,
2013-11-22 13:33:00,50.1,45.8,30.12,WSW,258,0.0,0.0,85,0.00,,OVC090,0.04,VWS V14.01,2013-11-22 18:33:00,
2013-11-22 13:38:00,50.2,45.9,30.12,WSW,258,0.0,1.0,85,0.00,,OVC090,0.04,VWS V14.01,2013-11-22 18:38:00,
2013-11-22 13:43:00,50.2,45.9,30.12,WSW,258,0.0,1.0,85,0.00,,OVC090,0.04,VWS V14.01,2013-11-22 18:43:00,
2013-11-22 13:48:00,50.3,46.0,30.12,WSW,258,0.0,1.0,85,0.00,,OVC090,0.04,VWS V14.01,2013-11-22 18:48:00,
2013-11-22 13:53:00,50.3,46.0,30.12,WSW,258,0.0,1.0,85,0.00,,OVC090,0.04,VWS V14.01,2013-11-22 18:53:00,
2013-11-22 13:58:00,50.3,46.0,30.12,West,260,0.0,2.0,85,0.00,,OVC090,0.04,VWS V14.01,2013-11-22 18:58:00,
2013-11-22 14:03:00,50.2,45.9,30.12,West,260,0.0,1.0,85,0.00,,OVC070,0.04,VWS V14.01,2013-11-22 19:03:00,
2013-11-22 14:08:00,50.2,45.9,30.12,West,270,0.0,2.0,85,0.00,,OVC070,0.04,VWS V14.01,2013-11-22 19:08:00,
2013-11-22 14:13:00,50.2,46.2,30.11,West,270,0.0,2.0,86,0.00,,OVC070,0.04,VWS V14.01,2013-11-22 19:13:00,
2013-11-22 14:18:00,50.3,46.3,30.11,West,270,0.0,2.0,86,0.00,,OVC070,0.04,VWS V14.01,2013-11-22 19:18:00,
2013-11-22 14:23:00,50.3,46.0,30.11,West,270,0.0,2.0,85,0.00,,OVC070,0.04,VWS V14.01,2013-11-22 19:23:00,
2013-11-22 14:28:00,50.3,46.0,30.11,West,270,0.0,2.0,85,0.00,,OVC070,0.04,VWS V14.01,2013-11-22 19:28:00,
2013-11-22 14:33:00,50.4,46.4,30.10,West,270,0.0,0.0,86,0.00,,OVC070,0.04,VWS V14.01,2013-11-22 19:33:00,
2013-11-22 14:38:00,50.6,46.3,30.11,West,270,0.0,0.0,85,0.00,,OVC070,0.04,VWS V14.01,2013-11-22 19:38:00,
2013-11-22 14:43:00,50.6,46.3,30.10,West,270,0.0,0.0,85,0.00,,OVC070,0.04,VWS V14.01,2013-11-22 19:43:00,
2013-11-22 14:48:00,50.6,46.3,30.10,West,270,0.0,0.0,85,0.00,,OVC070,0.04,VWS V14.01,2013-11-22 19:48:00,
2013-11-22 14:53:00,50.7,46.4,30.10,West,270,0.0,0.0,85,0.00,,OVC070,0.04,VWS V14.01,2013-11-22 19:53:00,
2013-11-22 14:58:00,50.7,46.4,30.10,West,270,0.0,0.0,85,0.00,,OVC070,0.04,VWS V14.01,2013-11-22 19:58:00,
2013-11-22 15:03:00,50.7,46.4,30.10,West,270,0.0,0.0,85,0.00,,OVC110,0.04,VWS V14.01,2013-11-22 20:03:00,
2013-11-22 15:08:00,50.7,46.4,30.09,West,270,0.0,0.0,85,0.00,,OVC110,0.04,VWS V14.01,2013-11-22 20:08:00,
2013-11-22 15:13:00,50.7,46.4,30.10,West,270,0.0,0.0,85,0.00,,OVC110,0.04,VWS V14.01,2013-11-22 20:13:00,
2013-11-22 15:18:00,50.7,46.4,30.10,West,270,0.0,0.0,85,0.00,,OVC110,0.04,VWS V14.01,2013-11-22 20:18:00,
2013-11-22 15:23:00,50.6,46.3,30.09,West,270,0.0,0.0,85,0.00,,OVC110,0.04,VWS V14.01,2013-11-22 20:23:00,
2013-11-22 15:28:00,50.6,46.3,30.09,West,270,0.0,0.0,85,0.00,,OVC110,0.04,VWS V14.01,2013-11-22 20:28:00,
2013-11-22 15:33:00,50.5,46.2,30.09,West,270,0.0,0.0,85,0.00,,BKN060,0.04,VWS V14.01,2013-11-22 20:33:00,
2013-11-22 15:38:00,50.4,46.1,30.09,West,270,0.0,0.0,85,0.00,,BKN060,0.04,VWS V14.01,2013-11-22 20:38:00,
2013-11-22 15:43:00,50.4,46.1,30.09,West,270,0.0,0.0,85,0.00,,BKN060,0.04,VWS V14.01,2013-11-22 20:43:00,
2013-11-22 15:48:00,50.3,46.3,30.08,West,270,0.0,0.0,86,0.00,,BKN060,0.04,VWS V14.01,2013-11-22 20:48:00,
2013-11-22 15:53:00,50.3,46.3,30.08,West,270,0.0,0.0,86,0.00,,BKN060,0.04,VWS V14.01,2013-11-22 20:53:00,
2013-11-22 15:58:00,50.2,46.2,30.08,West,268,0.0,0.0,86,0.00,,BKN060,0.04,VWS V14.01,2013-11-22 20:58:00,
2013-11-22 16:03:00,69.8,65.4,30.07,WSW,249,0.0,0.0,86,0.00,,OVC100,0.04,VWS V14.01,2013-11-22 21:03:00,
2013-11-22 16:08:00,50.1,46.1,30.07,West,280,0.0,0.0,86,0.00,,OVC100,0.04,VWS V14.01,2013-11-22 21:08:00,
2013-11-22 16:13:00,50.0,46.0,30.07,West,270,0.0,0.0,86,0.00,,OVC100,0.04,VWS V14.01,2013-11-22 21:13:00,
2013-11-22 16:18:00,49.9,45.9,30.08,West,270,0.0,0.0,86,0.00,,OVC100,0.04,VWS V14.01,2013-11-22 21:18:00,
2013-11-22 16:23:00,49.8,45.8,30.07,West,270,0.0,0.0,86,0.00,,OVC100,0.04,VWS V14.01,2013-11-22 21:23:00,
2013-11-22 16:28:00,49.7,45.7,30.07,West,270,0.0,0.0,86,0.00,,OVC100,0.04,VWS V14.01,2013-11-22 21:28:00,
2013-11-22 16:33:00,49.7,46.0,30.07,West,270,0.0,0.0,87,0.00,,OVC100,0.04,VWS V14.01,2013-11-22 21:33:00,
2013-11-22 16:38:00,49.6,45.9,30.07,West,270,0.0,0.0,87,0.00,,OVC100,0.04,VWS V14.01,2013-11-22 21:38:00,
2013-11-22 16:43:00,49.5,45.5,30.07,West,270,0.0,0.0,86,0.00,,OVC100,0.04,VWS V14.01,2013-11-22 21:43:00,
2013-11-22 16:48:00,49.5,45.8,30.07,West,270,0.0,0.0,87,0.00,,OVC100,0.04,VWS V14.01,2013-11-22 21:48:00,
2013-11-22 16:53:00,49.4,45.7,30.07,West,270,0.0,0.0,87,0.00,,OVC100,0.04,VWS V14.01,2013-11-22 21:53:00,
2013-11-22 16:58:00,49.3,45.6,30.06,West,270,0.0,0.0,87,0.00,,OVC100,0.04,VWS V14.01,2013-11-22 21:58:00,
2013-11-22 17:03:00,49.3,45.6,30.07,West,270,0.0,0.0,87,0.00,,OVC026,0.04,VWS V14.01,2013-11-22 22:03:00,
2013-11-22 17:08:00,49.2,45.5,30.06,West,270,0.0,0.0,87,0.00,,OVC026,0.04,VWS V14.01,2013-11-22 22:08:00,
2013-11-22 17:13:00,49.2,45.8,30.06,West,270,0.0,0.0,88,0.00,,OVC026,0.04,VWS V14.01,2013-11-22 22:13:00,
2013-11-22 17:18:00,49.1,45.7,30.06,West,270,0.0,0.0,88,0.00,,OVC026,0.04,VWS V14.01,2013-11-22 22:18:00,
2013-11-22 17:23:00,49.0,45.6,30.07,West,270,0.0,0.0,88,0.00,,OVC026,0.04,VWS V14.01,2013-11-22 22:23:00,
2013-11-22 17:28:00,48.9,45.8,30.06,West,270,0.0,0.0,89,0.00,,OVC026,0.04,VWS V14.01,2013-11-22 22:28:00,
2013-11-22 17:33:00,48.9,45.8,30.06,West,270,0.0,0.0,89,0.00,,OVC026,0.04,VWS V14.01,2013-11-22 22:33:00,
2013-11-22 17:38:00,48.9,45.5,30.06,West,270,0.0,0.0,88,0.00,,OVC026,0.04,VWS V14.01,2013-11-22 22:38:00,
2013-11-22 17:43:00,48.8,45.7,30.06,West,270,0.0,0.0,89,0.00,,OVC026,0.04,VWS V14.01,2013-11-22 22:43:00,
2013-11-22 17:48:00,48.8,45.7,30.06,West,270,0.0,0.0,89,0.00,,OVC026,0.04,VWS V14.01,2013-11-22 22:48:00,
2013-11-22 17:53:00,48.7,45.6,30.06,West,270,0.0,0.0,89,0.00,,OVC026,0.04,VWS V14.01,2013-11-22 22:53:00,
2013-11-22 17:58:00,48.7,45.6,30.06,West,270,0.0,0.0,89,0.00,,OVC026,0.04,VWS V14.01,2013-11-22 22:58:00,
2013-11-22 18:03:00,48.6,45.5,30.06,West,270,0.0,0.0,89,0.00,,-RA,0.04,VWS V14.01,2013-11-22 23:03:00,
2013-11-22 18:08:00,48.6,45.5,30.06,West,270,0.0,0.0,89,0.00,,-RA,0.04,VWS V14.01,2013-11-22 23:08:00,
2013-11-22 18:13:00,48.6,45.8,30.06,West,270,0.0,0.0,90,0.00,,-RA,0.04,VWS V14.01,2013-11-22 23:13:00,
2013-11-22 18:18:00,48.5,45.7,30.06,West,270,0.0,0.0,90,0.00,,-RA,0.04,VWS V14.01,2013-11-22 23:18:00,
2013-11-22 18:23:00,48.5,45.7,30.06,West,270,0.0,0.0,90,0.00,,-RA,0.04,VWS V14.01,2013-11-22 23:23:00,
2013-11-22 18:28:00,48.5,45.7,30.06,West,270,0.0,0.0,90,0.00,,-RA,0.04,VWS V14.01,2013-11-22 23:28:00,
2013-11-22 18:33:00,48.4,45.6,30.06,West,270,0.0,0.0,90,0.00,,-RA,0.04,VWS V14.01,2013-11-22 23:33:00,
2013-11-22 18:38:00,48.4,45.6,30.06,West,270,0.0,0.0,90,0.00,,-RA,0.04,VWS V14.01,2013-11-22 23:38:00,
2013-11-22 18:43:00,48.3,45.8,30.06,West,270,0.0,0.0,91,0.00,,-RA,0.04,VWS V14.01,2013-11-22 23:43:00,
2013-11-22 18:48:00,48.3,45.8,30.06,West,270,0.0,0.0,91,0.00,,-RA,0.04,VWS V14.01,2013-11-22 23:48:00,
2013-11-22 18:53:00,48.2,45.7,30.06,West,270,0.0,0.0,91,0.00,,-RA,0.04,VWS V14.01,2013-11-22 23:53:00,
2013-11-22 18:58:00,48.2,45.7,30.06,West,270,0.0,0.0,91,0.00,,-RA,0.04,VWS V14.01,2013-11-22 23:58:00,
2013-11-22 19:03:00,48.2,46.0,30.06,West,270,0.0,0.0,92,0.00,,-RA,0.04,VWS V14.01,2013-11-23 00:03:00,
2013-11-22 19:08:00,48.1,45.9,30.06,West,270,0.0,0.0,92,0.01,,-RA,0.05,VWS V14.01,2013-11-23 00:08:00,
2013-11-22 19:13:00,48.1,45.9,30.06,West,270,0.0,1.0,92,0.02,,-RA,0.06,VWS V14.01,2013-11-23 00:13:00,
2013-11-22 19:18:00,48.0,46.1,30.06,West,270,0.0,1.0,93,0.02,,-RA,0.06,VWS V14.01,2013-11-23 00:18:00,
2013-11-22 19:23:00,47.9,46.0,30.06,West,270,1.0,2.0,93,0.02,,-RA,0.06,VWS V14.01,2013-11-23 00:23:00,
2013-11-22 19:28:00,47.9,46.3,30.06,West,271,1.0,5.0,94,0.02,,-RA,0.06,VWS V14.01,2013-11-23 00:28:00,
2013-11-22 19:33:00,47.8,46.4,30.06,West,276,3.0,6.0,95,0.02,,-RA,0.06,VWS V14.01,2013-11-23 00:33:00,
2013-11-22 19:38:00,47.8,46.7,30.06,West,266,2.0,6.0,96,0.02,,-RA,0.06,VWS V14.01,2013-11-23 00:38:00,
2013-11-22 19:43:00,47.8,46.7,30.05,West,260,2.0,6.0,96,0.02,,-RA,0.06,VWS V14.01,2013-11-23 00:43:00,
2013-11-22 19:48:00,47.8,46.7,30.06,West,268,1.0,6.0,96,0.02,,-RA,0.06,VWS V14.01,2013-11-23 00:48:00,
2013-11-22 19:53:00,47.8,46.7,30.06,West,271,0.0,6.0,96,0.02,,-RA,0.06,VWS V14.01,2013-11-23 00:53:00,
2013-11-22 19:58:00,47.7,46.6,30.06,West,279,2.0,6.0,96,0.02,,-RA,0.06,VWS V14.01,2013-11-23 00:58:00,
2013-11-22 20:03:00,47.7,46.6,30.06,WNW,285,0.0,2.0,96,0.02,,,0.06,VWS V14.01,2013-11-23 01:03:00,
2013-11-22 20:08:00,47.6,46.5,30.06,West,267,2.0,4.0,96,0.02,,,0.06,VWS V14.01,2013-11-23 01:08:00,
2013-11-22 20:13:00,47.6,46.5,30.05,West,267,0.0,4.0,96,0.02,,,0.06,VWS V14.01,2013-11-23 01:13:00,
2013-11-22 20:18:00,47.6,46.5,30.05,West,267,0.0,4.0,96,0.02,,,0.06,VWS V14.01,2013-11-23 01:18:00,
2013-11-22 20:23:00,47.6,46.8,30.05,West,267,1.0,4.0,97,0.02,,,0.06,VWS V14.01,2013-11-23 01:23:00,
2013-11-22 20:28:00,47.6,46.8,30.06,West,267,1.0,4.0,97,0.02,,,0.06,VWS V14.01,2013-11-23 01:28:00,
2013-11-22 20:33:00,47.6,46.8,30.05,West,267,0.0,2.0,97,0.00,,,0.06,VWS V14.01,2013-11-23 01:33:00,
2013-11-22 20:38:00,47.6,46.8,30.06,West,267,0.0,2.0,97,0.00,,,0.06,VWS V14.01,2013-11-23 01:38:00,
2013-11-22 20:43:00,47.5,46.7,30.06,West,267,0.0,2.0,97,0.00,,,0.06,VWS V14.01,2013-11-23 01:43:00,
2013-11-22 20:48:00,47.5,46.7,30.06,West,267,0.0,2.0,97,0.00,,,0.06,VWS V14.01,2013-11-23 01:48:00,
2013-11-22 20:53:00,47.4,46.6,30.06,West,267,0.0,2.0,97,0.00,,,0.06,VWS V14.01,2013-11-23 01:53:00,
2013-11-22 20:58:00,47.4,46.6,30.06,West,267,0.0,2.0,97,0.00,,,0.06,VWS V14.01,2013-11-23 01:58:00,
2013-11-22 21:03:00,47.4,46.6,30.06,West,267,0.0,1.0,97,0.00,,,0.06,VWS V14.01,2013-11-23 02:03:00,
2013-11-22 21:08:00,47.4,46.6,30.06,West,267,0.0,1.0,97,0.00,,,0.06,VWS V14.01,2013-11-23 02:08:00,
2013-11-22 21:13:00,47.4,46.6,30.06,West,267,0.0,1.0,97,0.00,,,0.06,VWS V14.01,2013-11-23 02:13:00,
2013-11-22 21:18:00,47.4,46.6,30.06,West,267,0.0,1.0,97,0.00,,,0.06,VWS V14.01,2013-11-23 02:18:00,
2013-11-22 21:23:00,47.4,46.6,30.06,West,267,0.0,1.0,97,0.00,,,0.06,VWS V14.01,2013-11-23 02:23:00,
2013-11-22 21:28:00,47.4,46.6,30.06,West,267,0.0,1.0,97,0.00,,,0.06,VWS V14.01,2013-11-23 02:28:00,
2013-11-22 21:33:00,47.4,46.6,30.06,West,267,2.0,2.0,97,0.00,,OVC060,0.06,VWS V14.01,2013-11-23 02:33:00,
2013-11-22 21:38:00,47.4,46.6,30.07,West,267,0.0,3.0,97,0.00,,OVC060,0.06,VWS V14.01,2013-11-23 02:38:00,
2013-11-22 21:44:00,47.4,46.6,30.06,West,267,0.0,3.0,97,0.00,,OVC060,0.06,VWS V14.01,2013-11-23 02:44:00,
2013-11-22 21:49:00,47.4,46.6,30.07,WSW,247,0.0,3.0,97,0.00,,OVC060,0.06,VWS V14.01,2013-11-23 02:49:00,
2013-11-22 21:54:00,47.4,46.9,30.06,WSW,242,1.0,6.0,98,0.00,,OVC060,0.06,VWS V14.01,2013-11-23 02:54:00,
2013-11-22 21:59:00,47.4,46.6,30.07,West,260,1.0,6.0,97,0.00,,OVC060,0.06,VWS V14.01,2013-11-23 02:59:00,
2013-11-22 22:04:00,47.4,46.6,30.07,West,260,0.0,2.0,97,0.00,,OVC043,0.06,VWS V14.01,2013-11-23 03:04:00,
2013-11-22 22:09:00,47.5,47.0,30.08,West,260,0.0,2.0,98,0.00,,OVC043,0.06,VWS V14.01,2013-11-23 03:09:00,
2013-11-22 22:14:00,47.5,47.0,30.07,West,263,1.0,4.0,98,0.00,,OVC043,0.06,VWS V14.01,2013-11-23 03:14:00,
2013-11-22 22:19:00,47.5,46.7,30.07,West,263,0.0,4.0,97,0.00,,OVC043,0.06,VWS V14.01,2013-11-23 03:19:00,
2013-11-22 22:24:00,47.5,46.7,30.07,West,270,0.0,4.0,97,0.00,,OVC043,0.06,VWS V14.01,2013-11-23 03:24:00,
2013-11-22 22:29:00,47.5,46.7,30.07,West,278,2.0,4.0,97,0.00,,OVC043,0.06,VWS V14.01,2013-11-23 03:29:00,
2013-11-22 22:34:00,47.5,46.7,30.07,West,269,1.0,3.0,97,0.00,,OVC043,0.06,VWS V14.01,2013-11-23 03:34:00,
2013-11-22 22:39:00,47.5,46.7,30.08,West,269,0.0,3.0,97,0.00,,OVC043,0.06,VWS V14.01,2013-11-23 03:39:00,
2013-11-22 22:44:00,47.5,46.7,30.08,West,269,1.0,3.0,97,0.00,,OVC043,0.06,VWS V14.01,2013-11-23 03:44:00,
2013-11-22 22:49:00,47.5,46.7,30.09,West,268,2.0,5.0,97,0.00,,OVC043,0.06,VWS V14.01,2013-11-23 03:49:00,
2013-11-22 22:54:00,47.5,46.4,30.08,West,268,2.0,5.0,96,0.00,,OVC043,0.06,VWS V14.01,2013-11-23 03:54:00,
2013-11-22 22:59:00,47.5,46.4,30.09,WNW,290,0.0,5.0,96,0.00,,OVC043,0.00,VWS V14.01,2013-11-23 03:59:00,
2013-11-22 23:04:00,47.5,46.4,30.09,West,281,2.0,5.0,96,0.00,,OVC033,0.06,VWS V14.01,2013-11-23 04:04:00,
2013-11-22 23:09:00,47.6,46.2,30.10,WNW,288,0.0,5.0,95,0.00,,OVC033,0.06,VWS V14.01,2013-11-23 04:09:00,
2013-11-22 23:14:00,47.5,45.9,30.10,North,2,11.0,19.0,94,0.00,,OVC033,0.06,VWS V14.01,2013-11-23 04:14:00,
2013-11-22 23:19:00,47.4,44.9,30.10,NNW,348,5.0,19.0,91,0.00,,OVC033,0.06,VWS V14.01,2013-11-23 04:19:00,
2013-11-22 23:24:00,47.4,44.6,30.11,North,353,0.0,19.0,90,0.00,,OVC033,0.06,VWS V14.01,2013-11-23 04:24:00,
2013-11-22 23:29:00,47.3,44.2,30.11,NNW,345,0.0,19.0,89,0.00,,OVC033,0.06,VWS V14.01,2013-11-23 04:29:00,
2013-11-22 23:34:00,47.2,43.5,30.12,NNW,346,1.0,10.0,87,0.00,,OVC029,0.06,VWS V14.01,2013-11-23 04:34:00,
2013-11-22 23:39:00,47.1,42.8,30.11,North,352,4.0,10.0,85,0.00,,OVC029,0.06,VWS V14.01,2013-11-23 04:39:00,
2013-11-22 23:44:00,47.1,42.8,30.12,NW,312,0.0,10.0,85,0.00,,OVC029,0.06,VWS V14.01,2013-11-23 04:44:00,
2013-11-22 23:49:00,46.9,42.0,30.11,WNW,289,2.0,10.0,83,0.00,,OVC029,0.06,VWS V14.01,2013-11-23 04:49:00,
2013-11-22 23:54:00,46.8,41.9,30.12,NW,317,1.0,11.0,83,0.00,,OVC029,0.06,VWS V14.01,2013-11-23 04:54:00,
2013-11-22 23:59:00,46.6,41.4,30.11,North,7,2.0,11.0,82,0.00,,OVC029,0.06,VWS V14.01,2013-11-23 04:59:00,